Regional Weather Roundup
Issued by NWS Northern Indiana

Home | Current Version | Previous Version | Text Only | Print | Product List | Glossary On
Versions: 1 2 3 4 5 6 7 8 9 10 11 12 13 14 15 16 17 18 19 20 21 22 23 24 25 26 27 28 29 30 31 32 33 34 35 36 37 38 39 40 41 42 43 44 45 46 47 48 49 50
000
ASUS43 KIWX 202300
RWRIWX

KIWX WEATHER ROUNDUP
NATIONAL WEATHER SERVICE NORTHERN INDIANA
600 PM EST FRI JAN 20 2017

NOTE: "FAIR" INDICATES FEW OR NO CLOUDS BELOW 12,000 FEET WITH NO
SIGNIFICANT WEATHER AND/OR OBSTRUCTIONS TO VISIBILITY.

* THESE STATIONS ARE NOT UNDER NWS QUALITY CONTROL. THEY ALSO MAY NOT
  REPORT WEATHER SUCH AS PRECIPITATION OR FOG.

INZ001>027-210000-
NORTHERN INDIANA

CITY           SKY/WX    TMP DP  RH WIND       PRES   REMARKS
GARY*          CLOUDY    45  43  93 CALM      29.67R FOG
SOUTH BEND     FOG       42  42 100 SE3       29.68S VSB 1/2
ELKHART*       FOG       41  41 100 E3        29.68R VSB 1/4
GOSHEN         CLOUDY    45  42  89 S5        29.68R FOG
FORT WAYNE     CLOUDY    50  45  83 W8        29.71R

$$
INZ028>050-210000-
CENTRAL INDIANA

CITY           SKY/WX    TMP DP  RH WIND       PRES   REMARKS
LAFAYETTE      CLOUDY    50  48  93 CALM      29.67S
KOKOMO*        CLOUDY    49  48  97 S5        29.71R
MUNCIE*        CLOUDY    54  48  80 SW5       29.71R
INDIANAPOLIS   CLOUDY    52  47  83 SE5       29.70R

$$
MIZ043>046-050>051-056>058-064>065-071>073-077>080-210000-
SOUTHWEST LOWER MICHIGAN

CITY           SKY/WX    TMP DP  RH WIND       PRES   REMARKS
BATTLE CREEK   CLOUDY    39  39 100 S3        29.70R FOG
BENTON HARBOR  FOG       42  40  92 SE3       29.67S VSB 3/4
COLDWATER*     FOG       41  41 100 CALM      29.69S VSB 3/4
HILLSDALE*     FOG       39  39 100 SW3       29.69R VSB 1/2
HOLLAND        CLOUDY    38  36  92 E6        29.68R
GRAND RAPIDS   FOG       35  34  96 E3        29.69R VSB 1/2
KALAMAZOO      FOG       40  38  93 CALM      29.68F VSB 1/2
STURGIS*       FOG       41  41 100 CALM      29.67F VSB 3/4
THREE RIVERS*  CLOUDY    40  40  99 CALM      29.69S FOG

$$
OHZ001>008-015>018-024>025-210000-
NORTHWEST OHIO

CITY           SKY/WX    TMP DP  RH WIND       PRES   REMARKS
DEFIANCE       CLOUDY    46  45  96 S3        29.71R FOG
FINDLAY        CLOUDY    50  47  89 SW5       29.70R
TOLEDO EXPRESS CLOUDY    45  45 100 SW5       29.71R
TOLEDO METCALF CLOUDY    46  45  96 W3        29.72R FOG
LIMA           CLOUDY    50  50 100 SW3       29.72R

$$
AND FOR LAKE MICHIGAN COASTAL AND OPEN LAKE BUOY OBSERVATIONS

STATION/POSITION TEMP    WIND        PRES    VSBY  WAVE
                 AIR SEA DIR/SP/G                  HT/PER
                 (F)     (DEG/KT/KT) (MB)    (MI)  (FT/S)
CALUMET HARBOR    37      70/  2/  2 1004.1R
MICHIGAN CITY     38      60/  2/  3   N/A
BURNS HARBOR      37      70/  3/  4 1005.4R

$$
&&




USA.gov is the U.S. government's official web portal to all federal, state and local government web resources and services.